[[{"header":{"parameterUnit":"m.s-1","parameterCategory":2,"la1":30.2991,"la2":30.254,"lo1":-89.0895,"lo2":-89.0444,"dy":0.0017,"dx":0.0017,"nx":28,"ny":28,"refTime":"2024-07-24T03:00:00:Z","depth":"0","parameterNumber":2,"parameterNumberName":"U-component_of_CURRENTS"},"data":[0,0,0,0,0,0,0,0,0,0,0,0,0,0,0,0,0,0,0,0,0,0,0,0,0,0,0,0,0,0,0,0,0,0,0,0,0,0,0,0,0,0,0,0,0,0,0,0,0,0,0,0,0,0,0,0,0,0,0.3533,0.3534,0,0.3616,0.3616,0.3617,0.3642,0.3642,0.3642,0.3642,0.3627,0.3626,0.3626,0,0,0,0,0,0,0,0,0,0,0,0,0,0.3307,0.3311,0.3533,0.3534,0.3536,0.3615,0.3616,0.3617,0.3642,0.3642,0.3642,0.3642,0.3627,0.3626,0.3626,0,0,0,0,0,0,0,0,0,0,0,0,0,0.3395,0.3312,0.3533,0.3561,0.3565,0.3615,0.3616,0.3617,0.3642,0.3642,0.3642,0.3642,0.3627,0.3626,0.3626,0.3622,0,0,0.3624,0.3624,0,0,0,0,0,0,0,0,0.339,0.3402,0.3556,0.3559,0.3564,0.3622,0.3531,0.3615,0.3642,0.3608,0.3642,0.3642,0.3619,0.3619,0.363,0.3621,0.3621,0.3624,0.3623,0.3623,0.3623,0,0,0,0,0,0,0,0.3384,0.3399,0.3561,0.3557,0.3562,0.3539,0.3552,0.3547,0.3607,0.3611,0.3614,0.363,0.362,0.363,0.3629,0.3621,0.3624,0.3623,0.3623,0.3623,0.3635,0.3636,0,0,0,0,0,0,0.3388,0.3394,0.3559,0.3564,0.348,0.3544,0.3558,0.36,0.3609,0.3613,0.363,0.3631,0.3631,0.363,0.3629,0.3643,0.3623,0.3623,0.3622,0.3634,0.3635,0.3636,0,0,0,0,0,0,0.3384,0.3403,0.3555,0.3482,0.35,0.3549,0.3595,0.3602,0.3614,0.3626,0.3627,0.3637,0.3631,0.3629,0.3635,0.3642,0.3622,0.3622,0.3634,0.3635,0.3636,0.366,0,0,0,0,0,0,0.3377,0.3402,0.342,0.3484,0.3505,0.3581,0.3596,0.3603,0.3626,0.3628,0.3632,0.3631,0.3631,0.3636,0.3634,0.3641,0.3621,0.3633,0.3634,0.3635,0.3659,0.3662,0.3665,0,0,0,0,0,0.3369,0.3406,0.3421,0.3441,0.3535,0.3582,0.359,0.3619,0.3627,0.363,0.3642,0.3631,0.3643,0.3636,0.3634,0.364,0.3632,0.3634,0.3635,0.3657,0.3661,0.3665,0,0,0,0,0,0,0.3318,0.3414,0.3432,0.3497,0.3531,0.3588,0.3601,0.3619,0.3633,0.3631,0.3638,0.3638,0.3647,0.364,0.3632,0.3649,0.3636,0.3637,0.3653,0.3657,0.366,0.376,0.3621,0,0,0,0,0,0.3317,0.3368,0.3439,0.3483,0.3506,0.3549,0.3569,0.3588,0.3617,0.3624,0.3635,0.3642,0.3652,0.3651,0.3657,0.366,0.3777,0.3664,0.3667,0.3669,0.375,0.3941,0.3971,0.3641,0.3641,0.3641,0,0,0.3305,0.3366,0.3392,0.3473,0.3505,0.3551,0.356,0.3593,0.3629,0.3617,0.3658,0.3652,0.3657,0.3671,0.3673,0.3664,0.3817,0.3671,0.3674,0.3755,0.3946,0.398,0.4009,0.3642,0.3642,0.3642,0,0,0.332,0.3366,0.3417,0.345,0.3507,0.3538,0.3547,0.3603,0.3625,0.3647,0.3663,0.3687,0.367,0.3713,0.372,0.3748,0.383,0.3712,0.3807,0.3988,0.4019,0.4048,0.4216,0.426,0.371,0.371,0.371,0,0.3305,0.3401,0.3428,0.3483,0.3535,0.3537,0.3604,0.3613,0.366,0.3725,0.3657,0.3751,0.3711,0.3816,0.3804,0.3762,0.3884,0.3783,0.4,0.4031,0.4061,0.4227,0.4275,0.3711,0.3711,0.3711,0.3711,0,0.3372,0.3436,0.3465,0.3551,0.3587,0.3641,0.3677,0.3712,0.3722,0.3768,0.386,0.3831,0.3924,0.3863,0.3826,0.4004,0.4029,0.3986,0.4002,0.4097,0.4263,0.4313,0.3713,0.3713,0.3713,0.3712,0,0,0.3408,0.3503,0.3517,0.3592,0.3646,0.3706,0.3754,0.3868,0.397,0.3955,0.4119,0.4078,0.4114,0.4131,0.4097,0.4199,0.4438,0.4176,0.4185,0.4368,0.4871,0.4765,0.4809,0.4445,0.4454,0.4461,0.4897,0,0.3476,0.3613,0.3631,0.3755,0.385,0.3872,0.3941,0.4022,0.4071,0.4205,0.422,0.4318,0.4198,0.4241,0.434,0.4417,0.4578,0.4327,0.4736,0.475,0.4664,0.4866,0.4656,0.5018,0.4947,0.4955,0.4961,0,0.3577,0.3667,0.3809,0.3952,0.3995,0.4044,0.4232,0.4286,0.4431,0.4477,0.4594,0.4614,0.4763,0.4623,0.4915,0.4769,0.4868,0.4907,0.4925,0.4875,0.4739,0.4915,0.5112,0.4914,0.5039,0.5033,0.5027,0,0.3685,0.3814,0.3951,0.3992,0.4117,0.4199,0.4267,0.44,0.448,0.4683,0.4764,0.4957,0.5034,0.5211,0.5242,0.514,0.5562,0.5436,0.5466,0.5459,0.5393,0.5363,0.5477,0.5746,0.5745,0.5744,0.5742,0,0.3807,0.3917,0.4014,0.4091,0.4254,0.4314,0.4482,0.4572,0.4713,0.482,0.4926,0.5035,0.5185,0.5374,0.5436,0.5618,0.5755,0.559,0.5604,0.5383,0.5349,0.5257,0.5128,0.576,0.5756,0.5753,0.575,0,0.3902,0.3968,0.4123,0.4262,0.4306,0.4423,0.454,0.4638,0.4784,0.4929,0.4995,0.5184,0.5408,0.5558,0.584,0.5843,0.587,0.6064,0.5776,0.5747,0.5509,0.5388,0.5486,0.5341,0.6218,0.6219,0.6219,0,0.3973,0.4065,0.4212,0.4262,0.4314,0.4458,0.4517,0.4659,0.4725,0.4972,0.5026,0.5304,0.5422,0.5822,0.5934,0.6168,0.5918,0.6086,0.5833,0.5564,0.5444,0.5217,0.5068,0.5766,0.5763,0.576,0.5758,0,0.4074,0.411,0.4193,0.4293,0.4363,0.4445,0.4537,0.4594,0.4735,0.4863,0.5019,0.5161,0.551,0.5628,0.5922,0.6005,0.5755,0.6033,0.587,0.5234,0.4895,0.4733,0.5394,0.5734,0.5737,0.5738,0.574,0.5741,0.4094,0.4147,0.4211,0.4303,0.4355,0.4375,0.4395,0.4464,0.4557,0.467,0.4889,0.5053,0.5297,0.5652,0.57,0.5635,0.5615,0.5486,0.5417,0.5256,0.4933,0.5525,0.5769,0.5771,0.5774,0.5775,0.5777,0,0.4089,0.4125,0.4204,0.4254,0.425,0.4311,0.4343,0.4312,0.4331,0.45,0.4626,0.4863,0.4989,0.5145,0.5215,0.5064,0.4861,0.4916,0.4553,0.4478,0.5149,0.4933,0.4863,0.4863,0.4863,0.4864,0.4864,0.4864,0.4068,0.411,0.4151,0.4133,0.414,0.4067,0.4051,0.4023,0.4091,0.4135,0.4246,0.4412,0.4652,0.477,0.4634,0.4527,0.4167,0.4029,0.4012,0.4438,0.4483,0.4526,0.4295,0.4092,0.4091,0.3186,0.3179,0.3173]},{"header":{"parameterUnit":"m.s-1","parameterCategory":2,"la1":30.2991,"la2":30.254,"lo1":-89.0895,"lo2":-89.0444,"dy":0.0017,"dx":0.0017,"nx":28,"ny":28,"refTime":"2024-07-24T03:00:00:Z","depth":"0","parameterNumber":3,"parameterNumberName":"V-component_of_CURRENTS"},"data":[0,0,0,0,0,0,0,0,0,0,0,0,0,0,0,0,0,0,0,0,0,0,0,0,0,0,0,0,0,0,0,0,0,0,0,0,0,0,0,0,0,0,0,0,0,0,0,0,0,0,0,0,0,0,0,0,0,0,-0.0319,-0.032,0,-0.038,-0.0381,-0.0382,-0.0421,-0.0421,-0.0421,-0.0422,-0.0503,-0.0505,-0.0507,0,0,0,0,0,0,0,0,0,0,0,0,0,-0.026,-0.0261,-0.0319,-0.032,-0.032,-0.038,-0.0381,-0.0382,-0.0421,-0.0421,-0.0422,-0.0422,-0.0503,-0.0505,-0.0508,0,0,0,0,0,0,0,0,0,0,0,0,0,-0.0302,-0.0261,-0.0319,-0.0346,-0.0348,-0.038,-0.0381,-0.0382,-0.0421,-0.0421,-0.0422,-0.0422,-0.0502,-0.0505,-0.0508,-0.0527,0,0,-0.0518,-0.0519,0,0,0,0,0,0,0,0,-0.0299,-0.0304,-0.0341,-0.0344,-0.0347,-0.0391,-0.039,-0.0431,-0.0421,-0.0396,-0.0422,-0.0422,-0.0466,-0.0472,-0.0487,-0.053,-0.0534,-0.0518,-0.052,-0.0521,-0.0522,0,0,0,0,0,0,0,-0.0296,-0.0302,-0.0346,-0.0342,-0.0345,-0.0362,-0.0368,-0.0398,-0.0432,-0.0398,-0.0401,-0.0404,-0.0468,-0.0483,-0.0489,-0.0535,-0.0518,-0.0521,-0.0523,-0.0524,-0.058,-0.058,0,0,0,0,0,0,-0.0283,-0.0299,-0.0344,-0.0347,-0.032,-0.0362,-0.0369,-0.0379,-0.0432,-0.0439,-0.0404,-0.0405,-0.0478,-0.0485,-0.0492,-0.0482,-0.0521,-0.0524,-0.0526,-0.0581,-0.058,-0.058,0,0,0,0,0,0,-0.0282,-0.0287,-0.0341,-0.0322,-0.033,-0.0363,-0.0373,-0.038,-0.0389,-0.0435,-0.0443,-0.0405,-0.0478,-0.0487,-0.0507,-0.0487,-0.0526,-0.0529,-0.0581,-0.058,-0.058,-0.0485,0,0,0,0,0,0,-0.028,-0.0286,-0.0284,-0.0321,-0.033,-0.0344,-0.0373,-0.0381,-0.039,-0.0393,-0.0439,-0.0447,-0.0479,-0.0502,-0.051,-0.0492,-0.0531,-0.0582,-0.0581,-0.058,-0.0488,-0.0481,-0.0474,0,0,0,0,0,-0.0278,-0.027,-0.0283,-0.0288,-0.0328,-0.0343,-0.0349,-0.0375,-0.039,-0.0385,-0.0418,-0.0445,-0.0503,-0.0504,-0.0514,-0.0496,-0.0582,-0.0581,-0.058,-0.0492,-0.0482,-0.0475,0,0,0,0,0,0,-0.0238,-0.0274,-0.029,-0.0293,-0.031,-0.0349,-0.0347,-0.0367,-0.0391,-0.0395,-0.0441,-0.0451,-0.0462,-0.0495,-0.0495,-0.0511,-0.0547,-0.0548,-0.0476,-0.0468,-0.0461,-0.0379,-0.0534,0,0,0,0,0,-0.0229,-0.0234,-0.0269,-0.0267,-0.0276,-0.0311,-0.0319,-0.0338,-0.0365,-0.0376,-0.0409,-0.0443,-0.0468,-0.0479,-0.051,-0.0518,-0.0487,-0.0514,-0.0507,-0.05,-0.0441,-0.0376,-0.0355,-0.0576,-0.0576,-0.0576,0,0,-0.0212,-0.023,-0.0233,-0.0258,-0.0277,-0.0271,-0.0316,-0.0323,-0.0314,-0.0381,-0.0381,-0.0423,-0.0466,-0.0474,-0.0481,-0.0495,-0.0429,-0.0499,-0.0493,-0.0436,-0.0372,-0.035,-0.033,-0.0576,-0.0576,-0.0576,0,0,-0.0162,-0.0198,-0.0177,-0.0192,-0.0212,-0.0238,-0.0235,-0.0271,-0.0283,-0.0297,-0.0337,-0.0345,-0.0407,-0.0407,-0.0423,-0.0392,-0.0397,-0.0431,-0.0321,-0.026,-0.0239,-0.0221,-0.0175,-0.0153,-0.0422,-0.0422,-0.0422,0,-0.0133,-0.011,-0.0171,-0.0152,-0.014,-0.0216,-0.0174,-0.0211,-0.0246,-0.0219,-0.0284,-0.0298,-0.0359,-0.031,-0.0317,-0.0369,-0.0342,-0.035,-0.0244,-0.0225,-0.0208,-0.0165,-0.0141,-0.0417,-0.0418,-0.0419,-0.0419,0,-0.0064,-0.0044,-0.0033,-0.0033,-0.0041,-0.0019,-0.0071,-0.0074,-0.011,-0.0122,-0.0094,-0.0168,-0.0146,-0.0202,-0.0261,-0.017,-0.0195,-0.0244,-0.0252,-0.0178,-0.014,-0.0117,-0.0411,-0.0412,-0.0414,-0.0415,0,0,0.0024,0.0022,0.0032,0.0082,0.0036,0.0059,0.0055,0.0084,0.0155,0.0071,0.0185,0.0083,0.0073,0.0058,-0.0011,0.001,0.0108,-0.0063,-0.0062,0.0009,0.0248,0.0183,0.0201,0.0077,0.0081,0.0085,0.0219,0,0.0121,0.0209,0.0164,0.0261,0.0318,0.0253,0.0284,0.0286,0.0275,0.035,0.0282,0.0337,0.0159,0.0197,0.0186,0.0148,0.0176,0.0077,0.0146,0.015,0.0105,0.0229,0.0133,0.0241,0.0241,0.0244,0.0247,0,0.0244,0.0287,0.0405,0.048,0.0498,0.0531,0.0627,0.064,0.0677,0.0681,0.0703,0.0657,0.0681,0.0519,0.0512,0.0457,0.0379,0.0316,0.032,0.026,0.013,0.0169,0.0282,-0.0018,0.0282,0.0279,0.0277,0,0.0426,0.0482,0.0601,0.0617,0.0655,0.0718,0.0738,0.0773,0.083,0.0927,0.1007,0.0996,0.1042,0.0941,0.0769,0.067,0.0771,0.0621,0.0494,0.0486,0.0426,0.0406,0.029,0.0657,0.0656,0.0656,0.0656,0,0.06,0.0705,0.0705,0.0781,0.0919,0.0899,0.1056,0.1074,0.1157,0.1272,0.1211,0.1319,0.1153,0.1147,0.0941,0.0818,0.0916,0.0579,0.0546,0.0448,0.0429,0.0178,0.0041,0.0661,0.066,0.0659,0.0658,0,0.0811,0.0818,0.0944,0.0994,0.1018,0.1121,0.1195,0.1295,0.1377,0.154,0.1588,0.1623,0.1617,0.1436,0.1328,0.1077,0.0787,0.087,0.0758,0.0708,0.0233,0.0106,0.0075,-0.0038,0.0751,0.075,0.075,0,0.0937,0.1024,0.108,0.1115,0.1141,0.1257,0.1319,0.1396,0.1491,0.1707,0.18,0.1893,0.1935,0.1772,0.1398,0.112,0.0842,0.082,0.0591,0.0259,0.0094,0.0,-0.0101,0.0538,0.0536,0.0535,0.0533,0,0.1114,0.1117,0.1163,0.1236,0.1306,0.1409,0.1516,0.1632,0.175,0.1924,0.214,0.2229,0.2075,0.1797,0.1426,0.1147,0.0589,0.0772,0.0479,-0.0008,-0.0157,-0.0301,0.0379,0.0518,0.052,0.0521,0.0522,0.0522,0.1172,0.1209,0.1219,0.1303,0.139,0.1529,0.164,0.178,0.1991,0.2259,0.2345,0.2536,0.2108,0.1585,0.121,0.0421,0.0476,0.0106,0.0007,-0.0036,-0.0226,0.0419,0.0473,0.0474,0.0476,0.0476,0.0477,0,0.1168,0.1192,0.1267,0.1352,0.147,0.1522,0.1726,0.1863,0.2119,0.2403,0.2609,0.2519,0.1929,0.132,0.0304,-0.0255,-0.0465,-0.0553,-0.0745,-0.0792,-0.0181,-0.0284,-0.0452,-0.0451,-0.0451,-0.0451,-0.0451,-0.045,0.1142,0.1169,0.1216,0.1378,0.1472,0.165,0.178,0.2022,0.2259,0.2597,0.2754,0.2842,0.231,0.0553,-0.0713,-0.0994,-0.1326,-0.1391,-0.15,-0.1184,-0.1133,-0.1084,-0.1218,-0.1578,-0.158,-0.2123,-0.2129,-0.2133]}],[{"header":{"parameterUnit":"m.s-1","parameterCategory":2,"la1":30.2991,"la2":30.254,"lo1":-89.0895,"lo2":-89.0444,"dy":0.0017,"dx":0.0017,"nx":28,"ny":28,"refTime":"2024-07-24T03:00:00:Z","depth":"2","parameterNumber":2,"parameterNumberName":"U-component_of_CURRENTS"},"data":[0,0,0,0,0,0,0,0,0,0,0,0,0,0,0,0,0,0,0,0,0,0,0,0,0,0,0,0,0,0,0,0,0,0,0,0,0,0,0,0,0,0,0,0,0,0,0,0,0,0,0,0,0,0,0,0,0,0,0.271,0.2708,0,0.2615,0.2614,0.2614,0.2631,0.2631,0.2632,0.2633,0.2693,0.2694,0.2695,0,0,0,0,0,0,0,0,0,0,0,0,0,0.2612,0.2617,0.271,0.2708,0.2706,0.2615,0.2614,0.2614,0.2631,0.2631,0.2632,0.2633,0.2693,0.2694,0.2695,0,0,0,0,0,0,0,0,0,0,0,0,0,0.2611,0.2619,0.2711,0.2695,0.2691,0.2615,0.2614,0.2614,0.263,0.2631,0.2632,0.2633,0.2692,0.2694,0.2696,0.2686,0,0,0.27,0.2701,0,0,0,0,0,0,0,0,0.2612,0.2617,0.2699,0.2695,0.2692,0.2626,0.2601,0.2642,0.263,0.2666,0.2633,0.2634,0.2677,0.268,0.2674,0.2689,0.2691,0.27,0.2701,0.2702,0.2702,0,0,0,0,0,0,0,0.2612,0.2619,0.2684,0.2696,0.2692,0.259,0.2595,0.2608,0.2679,0.2663,0.2661,0.2632,0.2678,0.2672,0.2676,0.2692,0.27,0.2702,0.2703,0.2703,0.2825,0.2828,0,0,0,0,0,0,0.2617,0.2621,0.2687,0.268,0.264,0.2592,0.2597,0.2655,0.2675,0.2675,0.2631,0.2633,0.2669,0.2674,0.2678,0.2761,0.2702,0.2703,0.2704,0.2823,0.2826,0.2829,0,0,0,0,0,0,0.2617,0.2627,0.269,0.2633,0.2633,0.2594,0.2657,0.2652,0.268,0.2647,0.2653,0.2665,0.267,0.2676,0.2728,0.276,0.2704,0.2705,0.282,0.2824,0.2827,0.2868,0,0,0,0,0,0,0.2616,0.263,0.2665,0.2637,0.2636,0.2706,0.2654,0.265,0.2652,0.2655,0.2678,0.2682,0.2671,0.2726,0.273,0.2761,0.2707,0.2817,0.2822,0.2826,0.2864,0.2872,0.288,0,0,0,0,0,0.2614,0.2684,0.267,0.2675,0.2693,0.2708,0.2702,0.2677,0.2654,0.2701,0.2696,0.2683,0.2756,0.2729,0.2733,0.2765,0.2815,0.2821,0.2826,0.286,0.2871,0.288,0,0,0,0,0,0,0.2646,0.2689,0.2675,0.275,0.2745,0.2708,0.2729,0.2698,0.2726,0.2731,0.2707,0.2713,0.277,0.2771,0.2741,0.2818,0.2786,0.2792,0.2811,0.2821,0.2829,0.2893,0.2708,0,0,0,0,0,0.2667,0.2734,0.2739,0.2782,0.281,0.277,0.2764,0.275,0.2753,0.2766,0.2767,0.2776,0.2787,0.2809,0.2826,0.2867,0.2925,0.2896,0.2904,0.2911,0.2969,0.3092,0.3117,0.2846,0.2846,0.2846,0,0,0.2654,0.27,0.2717,0.2789,0.2792,0.2812,0.2779,0.2803,0.2804,0.2769,0.2808,0.2808,0.2806,0.2849,0.2875,0.2859,0.301,0.2917,0.2922,0.2979,0.3101,0.3127,0.3151,0.2849,0.2849,0.2848,0,0,0.2692,0.2758,0.2834,0.2853,0.2878,0.2856,0.2877,0.2879,0.2898,0.2902,0.2886,0.2927,0.2918,0.295,0.2949,0.3023,0.3047,0.3015,0.3109,0.3226,0.325,0.3272,0.3342,0.3371,0.302,0.302,0.302,0,0.2674,0.2795,0.2841,0.2914,0.2926,0.2889,0.2944,0.2936,0.2935,0.2985,0.293,0.2983,0.2968,0.3053,0.3065,0.3044,0.3105,0.3058,0.3238,0.3261,0.3284,0.3351,0.3382,0.3023,0.3022,0.3022,0.3022,0,0.2768,0.2847,0.2902,0.2983,0.3004,0.3051,0.3047,0.3095,0.3072,0.305,0.3142,0.3122,0.3182,0.3152,0.3113,0.3267,0.3256,0.3229,0.3212,0.3314,0.3377,0.3408,0.3026,0.3025,0.3025,0.3024,0,0,0.2806,0.2942,0.2963,0.301,0.3062,0.3085,0.3146,0.3216,0.3279,0.3254,0.3371,0.3342,0.3364,0.3375,0.3358,0.3428,0.3583,0.34,0.3404,0.3469,0.3834,0.3649,0.3664,0.3592,0.3599,0.3604,0.3802,0,0.2876,0.3008,0.307,0.3142,0.3212,0.3243,0.3297,0.3336,0.3364,0.3463,0.3479,0.3555,0.3434,0.3497,0.3546,0.3598,0.3676,0.3532,0.3731,0.3737,0.356,0.3699,0.3406,0.3544,0.3832,0.3837,0.3841,0,0.2986,0.306,0.3164,0.3274,0.3319,0.334,0.3484,0.3527,0.3651,0.3704,0.3794,0.3808,0.3931,0.3809,0.3955,0.3875,0.3884,0.3883,0.3891,0.3743,0.3612,0.3499,0.359,0.3893,0.3889,0.3885,0.3882,0,0.2999,0.3145,0.3227,0.325,0.3346,0.3437,0.3498,0.361,0.367,0.3901,0.3955,0.4109,0.4162,0.4249,0.419,0.4135,0.4323,0.4251,0.4092,0.4077,0.3885,0.384,0.4398,0.4398,0.4397,0.4397,0.4396,0,0.3065,0.3131,0.324,0.3264,0.3368,0.3465,0.3587,0.3702,0.3856,0.3917,0.4075,0.4149,0.4274,0.4341,0.4335,0.4292,0.4448,0.4168,0.4146,0.388,0.3836,0.4181,0.4154,0.4404,0.4403,0.4401,0.44,0,0.3027,0.3116,0.3185,0.3311,0.3361,0.342,0.3561,0.3628,0.3823,0.3933,0.4022,0.4213,0.4356,0.4408,0.4554,0.4415,0.4457,0.4396,0.4043,0.3973,0.4107,0.4079,0.432,0.4315,0.4312,0.4309,0.4306,0,0.3014,0.3046,0.3147,0.3155,0.3205,0.3315,0.3367,0.3583,0.3642,0.3913,0.3941,0.4174,0.4215,0.4349,0.4333,0.4366,0.442,0.4025,0.3859,0.4161,0.4115,0.4093,0.407,0.3619,0.3611,0.3604,0.3599,0,0.2906,0.2932,0.294,0.2989,0.3036,0.3107,0.3221,0.3269,0.351,0.3628,0.3789,0.3888,0.4037,0.3958,0.3987,0.3949,0.4013,0.3887,0.4386,0.3642,0.3505,0.3456,0.3458,0.3541,0.3547,0.3551,0.3554,0.3557,0.2751,0.2718,0.2722,0.2765,0.2827,0.2887,0.2907,0.3034,0.3143,0.3256,0.3442,0.348,0.3564,0.3487,0.3428,0.3448,0.369,0.3505,0.3525,0.3552,0.3395,0.3254,0.3214,0.3217,0.3221,0.3224,0.3226,0,0.2504,0.2503,0.2504,0.2541,0.255,0.2693,0.2775,0.2762,0.284,0.2942,0.2999,0.2757,0.2741,0.2915,0.2852,0.2825,0.2805,0.2722,0.2684,0.2745,0.2798,0.26,0.221,0.2206,0.2203,0.22,0,0,0.2343,0.2243,0.2276,0.225,0.2329,0.2332,0.2366,0.2387,0.2441,0.2354,0.2362,0.247,0.2733,0.2369,0.2369,0.2293,0.2484,0.2209,0.3032,0.3045,0.3092,0.3269,0.3034,0,0,0,0,0]},{"header":{"parameterUnit":"m.s-1","parameterCategory":2,"la1":30.2991,"la2":30.254,"lo1":-89.0895,"lo2":-89.0444,"dy":0.0017,"dx":0.0017,"nx":28,"ny":28,"refTime":"2024-07-24T03:00:00:Z","depth":"2","parameterNumber":3,"parameterNumberName":"V-component_of_CURRENTS"},"data":[0,0,0,0,0,0,0,0,0,0,0,0,0,0,0,0,0,0,0,0,0,0,0,0,0,0,0,0,0,0,0,0,0,0,0,0,0,0,0,0,0,0,0,0,0,0,0,0,0,0,0,0,0,0,0,0,0,0,-0.0249,-0.0249,0,-0.0285,-0.0286,-0.0287,-0.0335,-0.0335,-0.0335,-0.0335,-0.0421,-0.0423,-0.0425,0,0,0,0,0,0,0,0,0,0,0,0,0,-0.02,-0.0202,-0.0249,-0.0249,-0.0249,-0.0285,-0.0286,-0.0288,-0.0335,-0.0335,-0.0335,-0.0335,-0.042,-0.0423,-0.0425,0,0,0,0,0,0,0,0,0,0,0,0,0,-0.0234,-0.0202,-0.0249,-0.0272,-0.0274,-0.0285,-0.0286,-0.0288,-0.0335,-0.0335,-0.0335,-0.0336,-0.0419,-0.0422,-0.0426,-0.0441,0,0,-0.0435,-0.0437,0,0,0,0,0,0,0,0,-0.0232,-0.0237,-0.0269,-0.027,-0.0272,-0.03,-0.03,-0.0339,-0.0335,-0.0319,-0.0335,-0.0336,-0.038,-0.0387,-0.0402,-0.0445,-0.0449,-0.0436,-0.0438,-0.0439,-0.044,0,0,0,0,0,0,0,-0.023,-0.0235,-0.0271,-0.0268,-0.027,-0.0272,-0.0278,-0.0308,-0.0354,-0.0321,-0.0322,-0.0315,-0.0383,-0.0399,-0.0405,-0.045,-0.0436,-0.0438,-0.044,-0.0442,-0.05,-0.05,0,0,0,0,0,0,-0.0212,-0.0233,-0.027,-0.0271,-0.0244,-0.0272,-0.028,-0.0297,-0.0353,-0.0359,-0.0315,-0.0317,-0.0393,-0.0401,-0.0408,-0.041,-0.0439,-0.0442,-0.0444,-0.0501,-0.05,-0.05,0,0,0,0,0,0,-0.0212,-0.0216,-0.0268,-0.0246,-0.0252,-0.0272,-0.0291,-0.0297,-0.0312,-0.0347,-0.0356,-0.0323,-0.0394,-0.0403,-0.0423,-0.0414,-0.0443,-0.0446,-0.0501,-0.0501,-0.05,-0.0427,0,0,0,0,0,0,-0.0211,-0.0217,-0.0217,-0.0246,-0.0252,-0.027,-0.0291,-0.0297,-0.0304,-0.0308,-0.0357,-0.0365,-0.0395,-0.0418,-0.0426,-0.0419,-0.0449,-0.0502,-0.0501,-0.05,-0.043,-0.0424,-0.0419,0,0,0,0,0,-0.0209,-0.0213,-0.0217,-0.022,-0.0255,-0.0269,-0.0273,-0.0292,-0.0304,-0.0309,-0.0335,-0.0364,-0.042,-0.042,-0.043,-0.0424,-0.0502,-0.0501,-0.05,-0.0432,-0.0425,-0.0419,0,0,0,0,0,0,-0.0186,-0.0218,-0.0224,-0.0235,-0.0244,-0.0274,-0.0274,-0.0288,-0.0315,-0.032,-0.0359,-0.0368,-0.0382,-0.0414,-0.0413,-0.0439,-0.0466,-0.0467,-0.0411,-0.0405,-0.0399,-0.0369,-0.0452,0,0,0,0,0,-0.018,-0.0191,-0.0216,-0.0216,-0.0226,-0.0249,-0.0254,-0.027,-0.0294,-0.0306,-0.0334,-0.0365,-0.0387,-0.0403,-0.043,-0.0445,-0.0465,-0.0448,-0.0443,-0.0438,-0.042,-0.0425,-0.0417,-0.0497,-0.0497,-0.0497,0,0,-0.0162,-0.0181,-0.0183,-0.021,-0.0224,-0.0222,-0.0256,-0.0265,-0.026,-0.0311,-0.0316,-0.0346,-0.0386,-0.0399,-0.0409,-0.0424,-0.0432,-0.0437,-0.0432,-0.0417,-0.0423,-0.0415,-0.0408,-0.0497,-0.0497,-0.0497,0,0,-0.0128,-0.0161,-0.0156,-0.0167,-0.0181,-0.0199,-0.0198,-0.0228,-0.0244,-0.0252,-0.0283,-0.0299,-0.0342,-0.036,-0.0377,-0.0358,-0.04,-0.0376,-0.0327,-0.0332,-0.0325,-0.0319,-0.0356,-0.0353,-0.0376,-0.0376,-0.0376,0,-0.0102,-0.011,-0.015,-0.0146,-0.0146,-0.0184,-0.0173,-0.0192,-0.0217,-0.022,-0.0243,-0.0278,-0.0318,-0.0319,-0.0315,-0.0343,-0.0363,-0.0347,-0.0322,-0.0317,-0.0312,-0.0351,-0.0349,-0.0373,-0.0373,-0.0373,-0.0374,0,-0.0069,-0.0067,-0.0067,-0.0076,-0.0082,-0.0084,-0.0111,-0.0114,-0.0136,-0.0152,-0.0161,-0.0207,-0.0219,-0.0245,-0.0277,-0.0262,-0.0296,-0.0311,-0.0333,-0.0299,-0.0344,-0.0343,-0.0367,-0.0369,-0.037,-0.0371,0,0,-0.0031,-0.0042,-0.004,-0.0029,-0.0053,-0.0054,-0.0045,-0.005,-0.0034,-0.0067,-0.0036,-0.0093,-0.0113,-0.0132,-0.0175,-0.0191,-0.019,-0.0232,-0.0234,-0.0259,-0.0221,-0.0299,-0.0307,-0.0197,-0.0196,-0.0195,-0.0274,0,0.001,0.003,0.0012,0.0047,0.0053,0.0028,0.0044,0.0037,0.0019,0.0041,-0.0003,0.0011,-0.0073,-0.0061,-0.0094,-0.0145,-0.0182,-0.0169,-0.0259,-0.0262,-0.0327,-0.0306,-0.0253,-0.0323,-0.0274,-0.0274,-0.0274,0,0.0052,0.0053,0.0085,0.0103,0.0103,0.0127,0.0142,0.0153,0.0163,0.0157,0.0157,0.0135,0.0126,0.0058,-0.0034,-0.002,-0.0115,-0.0178,-0.0182,-0.0274,-0.0338,-0.0346,-0.0324,-0.0274,-0.0274,-0.0274,-0.0274,0,0.0092,0.0112,0.0137,0.014,0.015,0.0176,0.0191,0.0196,0.0204,0.0261,0.0277,0.026,0.0267,0.0171,0.0026,0.0013,-0.0087,-0.0119,-0.0294,-0.0302,-0.0284,-0.0292,-0.0194,-0.0194,-0.0194,-0.0193,-0.0193,0,0.0132,0.0156,0.0166,0.0177,0.0205,0.0224,0.0262,0.0276,0.0322,0.0361,0.0348,0.0364,0.0298,0.0224,0.0081,-0.0108,-0.005,-0.0279,-0.0317,-0.0263,-0.0268,-0.0242,-0.0246,-0.0196,-0.0196,-0.0195,-0.0195,0,0.0152,0.0173,0.0186,0.0205,0.0223,0.0239,0.0286,0.0321,0.0367,0.0431,0.0469,0.0464,0.0383,0.0249,0.0113,-0.0045,-0.0202,-0.0298,-0.0247,-0.028,-0.0433,-0.0432,-0.0475,-0.0478,-0.0481,-0.0483,-0.0485,0,0.0158,0.0169,0.0176,0.0183,0.0191,0.0232,0.0269,0.0334,0.0384,0.0468,0.0509,0.0484,0.0482,0.0227,-0.0005,-0.0243,-0.0287,-0.0401,-0.0423,-0.0423,-0.0456,-0.0452,-0.0448,-0.0378,-0.0379,-0.038,-0.038,0,0.0118,0.0118,0.011,0.0149,0.0187,0.0232,0.031,0.0378,0.0492,0.0585,0.0704,0.074,0.0487,0.0307,-0.0048,-0.0231,-0.0345,-0.043,-0.0402,-0.0328,-0.0341,-0.0372,-0.0369,-0.0387,-0.0386,-0.0386,-0.0385,-0.0385,0.0056,0.0042,0.0062,0.0107,0.016,0.0289,0.04,0.0533,0.0705,0.0947,0.0881,0.0973,0.0649,0.0262,-0.0082,-0.0432,-0.0436,-0.0537,-0.0529,-0.0523,-0.051,-0.0528,-0.0608,-0.0609,-0.0609,-0.061,-0.061,0,-0.0004,0.0018,0.0037,0.0135,0.0246,0.0286,0.0474,0.0678,0.0977,0.1113,0.1273,0.1018,0.0743,0.0355,-0.0156,-0.0497,-0.0484,-0.0607,-0.0498,-0.049,-0.0484,-0.0465,-0.0554,-0.0555,-0.0555,-0.0556,0,0,-0.0042,-0.0012,0.004,0.023,0.033,0.0564,0.0723,0.1038,0.1225,0.1453,0.15,0.1451,0.0916,0.0554,0.0074,-0.0217,-0.0264,-0.0279,-0.0289,-0.0095,-0.0083,-0.0416,-0.0378,0,0,0,0,0]}],[{"header":{"parameterUnit":"m.s-1","parameterCategory":2,"la1":30.2991,"la2":30.254,"lo1":-89.0895,"lo2":-89.0444,"dy":0.0017,"dx":0.0017,"nx":28,"ny":28,"refTime":"2024-07-24T03:00:00:Z","depth":"4","parameterNumber":2,"parameterNumberName":"U-component_of_CURRENTS"},"data":[0,0,0,0,0,0,0,0,0,0,0,0,0,0,0,0,0,0,0,0,0,0,0,0,0,0,0,0,0,0,0,0,0,0,0,0,0,0,0,0,0,0,0,0,0,0,0,0,0,0,0,0,0,0,0,0,0,0,0.101,0.1011,0,0.1076,0.1076,0.1077,0.1174,0.1177,0.1179,0.1181,0.1341,0.1343,0.1345,0,0,0,0,0,0,0,0,0,0,0,0,0,0.1039,0.1037,0.101,0.1011,0.1013,0.1076,0.1076,0.1077,0.1174,0.1177,0.118,0.1182,0.1341,0.1343,0.1346,0,0,0,0,0,0,0,0,0,0,0,0,0,0.1052,0.1037,0.101,0.1074,0.108,0.1076,0.1076,0.1077,0.1173,0.1177,0.118,0.1184,0.134,0.1343,0.1346,0.1296,0,0,0.1356,0.1357,0,0,0,0,0,0,0,0,0.1051,0.105,0.1063,0.1069,0.1077,0.1126,0.1146,0.1157,0.1173,0.1131,0.1181,0.1185,0.128,0.1288,0.1282,0.1304,0.1311,0.1356,0.1358,0.1359,0.136,0,0,0,0,0,0,0,0.105,0.1048,0.103,0.1064,0.1073,0.1124,0.1128,0.1148,0.1182,0.1135,0.1144,0.116,0.1284,0.1279,0.1287,0.1313,0.1356,0.1359,0.1361,0.1362,0.1559,0.1563,0,0,0,0,0,0,0.1046,0.1046,0.1028,0.1032,0.1079,0.1121,0.1125,0.1102,0.118,0.1197,0.1158,0.1165,0.1272,0.1283,0.1293,0.1433,0.1359,0.1362,0.1364,0.1556,0.156,0.1564,0,0,0,0,0,0,0.1046,0.1042,0.1025,0.1049,0.1052,0.1117,0.109,0.1101,0.1141,0.1197,0.1215,0.1192,0.1275,0.1289,0.1387,0.1433,0.1364,0.1367,0.1552,0.1557,0.1562,0.1589,0,0,0,0,0,0,0.1045,0.104,0.1007,0.1047,0.105,0.1056,0.1087,0.11,0.1147,0.1158,0.1231,0.1247,0.1279,0.1382,0.139,0.1437,0.1369,0.1548,0.1555,0.156,0.1584,0.1595,0.1604,0,0,0,0,0,0.1045,0.1009,0.1004,0.1002,0.1005,0.1058,0.1064,0.1119,0.1145,0.1166,0.1245,0.1247,0.1429,0.1387,0.1395,0.1444,0.1545,0.1553,0.156,0.158,0.1593,0.1603,0,0,0,0,0,0,0.104,0.1016,0.1013,0.0978,0.1025,0.1078,0.1089,0.1129,0.1196,0.1208,0.1275,0.1297,0.14,0.1422,0.1375,0.1527,0.1492,0.1501,0.1504,0.1516,0.1526,0.1573,0.1372,0,0,0,0,0,0.1007,0.0984,0.0987,0.0992,0.0981,0.1032,0.1055,0.1092,0.1162,0.1194,0.1302,0.138,0.1423,0.1473,0.1529,0.1595,0.162,0.1642,0.1651,0.1659,0.1709,0.1773,0.1792,0.1589,0.1588,0.1588,0,0,0.1027,0.1013,0.1006,0.0991,0.1013,0.1049,0.1055,0.1093,0.1171,0.1198,0.1372,0.1413,0.145,0.1544,0.1593,0.1577,0.1726,0.1669,0.1674,0.1721,0.1783,0.1802,0.182,0.1594,0.1593,0.1592,0,0,0.1048,0.1013,0.0971,0.102,0.104,0.1068,0.1087,0.1168,0.1225,0.1352,0.1397,0.1482,0.1605,0.1648,0.1665,0.1758,0.1768,0.1784,0.1876,0.1936,0.1953,0.1968,0.1993,0.201,0.1796,0.1796,0.1796,0,0.1062,0.1023,0.0991,0.1005,0.1064,0.1089,0.1119,0.1176,0.1327,0.1382,0.1429,0.1635,0.1651,0.1737,0.1786,0.1777,0.1818,0.1812,0.1946,0.1961,0.1976,0.1999,0.2018,0.1798,0.1798,0.1798,0.1797,0,0.1045,0.1064,0.1072,0.1088,0.1136,0.1189,0.1248,0.1341,0.1426,0.1502,0.1655,0.1725,0.1855,0.1859,0.185,0.1971,0.1964,0.1934,0.1903,0.1998,0.2016,0.2035,0.1801,0.18,0.18,0.1799,0,0,0.0971,0.1026,0.1043,0.1081,0.1188,0.1218,0.1344,0.1424,0.1491,0.1678,0.1792,0.1913,0.198,0.2011,0.2028,0.2092,0.2188,0.2084,0.2085,0.2088,0.2328,0.2145,0.2147,0.2194,0.2198,0.2202,0.2283,0,0.0972,0.0982,0.1043,0.1165,0.1173,0.13,0.142,0.1521,0.1614,0.1747,0.1832,0.1957,0.2022,0.2078,0.2165,0.2192,0.225,0.217,0.2258,0.226,0.2069,0.2167,0.2216,0.2297,0.2301,0.2305,0.2307,0,0.089,0.0936,0.0993,0.1158,0.1172,0.129,0.1437,0.1553,0.1708,0.1782,0.1954,0.2036,0.2213,0.2202,0.241,0.2374,0.2379,0.2387,0.2389,0.2236,0.2115,0.2197,0.2341,0.2338,0.2336,0.2333,0.2331,0,0.0781,0.0893,0.0936,0.1017,0.1205,0.1299,0.1413,0.1573,0.1641,0.1832,0.19,0.2131,0.2222,0.2373,0.2473,0.2461,0.2623,0.2576,0.2417,0.2402,0.2524,0.2508,0.2678,0.2678,0.2678,0.2677,0.2677,0,0.0726,0.0789,0.0896,0.0991,0.1051,0.1231,0.1357,0.1473,0.1639,0.1731,0.194,0.2036,0.2275,0.2401,0.2498,0.2547,0.2667,0.2473,0.2431,0.2529,0.2513,0.2535,0.2517,0.268,0.268,0.2679,0.2679,0,0.0593,0.0686,0.077,0.0972,0.1019,0.1072,0.1296,0.1382,0.157,0.1693,0.1774,0.1976,0.2177,0.236,0.2519,0.2516,0.2597,0.2545,0.2646,0.2601,0.2327,0.231,0.2416,0.2411,0.2406,0.2403,0.24,0,0.052,0.0541,0.0709,0.0754,0.0867,0.0988,0.1088,0.1306,0.1405,0.1662,0.1697,0.19,0.2052,0.2166,0.2344,0.2512,0.247,0.2487,0.2434,0.2362,0.2311,0.2301,0.2291,0.2392,0.2391,0.239,0.2389,0,0.0418,0.0479,0.0555,0.0625,0.0733,0.081,0.0984,0.1032,0.1321,0.1474,0.1621,0.1754,0.1889,0.2059,0.2161,0.2279,0.2501,0.244,0.2449,0.2399,0.2334,0.2285,0.2281,0.2373,0.2375,0.2377,0.2378,0,0.0338,0.032,0.0427,0.0476,0.0573,0.0652,0.0758,0.0939,0.1058,0.1381,0.1411,0.1667,0.1841,0.193,0.2065,0.2149,0.2131,0.2097,0.2124,0.2143,0.2023,0.1897,0.18,0,0,0,0,0,0.0245,0.0241,0.0277,0.037,0.0464,0.0524,0.07,0.0839,0.111,0.1172,0.1303,0.1464,0.1647,0.1747,0.1788,0.1931,0.2122,0.1969,0.2088,0.2286,0.2305,0.2193,0,0,0,0,0,0,0.0192,0.0211,0.0233,0.0274,0.0324,0.0423,0.0533,0.0705,0.0773,0.1045,0.1144,0.1353,0.1535,0.1604,0.1745,0.1787,0.1833,0.2125,0.2122,0.2276,0.2293,0.2307,0.2199,0,0,0,0,0]},{"header":{"parameterUnit":"m.s-1","parameterCategory":2,"la1":30.2991,"la2":30.254,"lo1":-89.0895,"lo2":-89.0444,"dy":0.0017,"dx":0.0017,"nx":28,"ny":28,"refTime":"2024-07-24T03:00:00:Z","depth":"4","parameterNumber":3,"parameterNumberName":"V-component_of_CURRENTS"},"data":[0,0,0,0,0,0,0,0,0,0,0,0,0,0,0,0,0,0,0,0,0,0,0,0,0,0,0,0,0,0,0,0,0,0,0,0,0,0,0,0,0,0,0,0,0,0,0,0,0,0,0,0,0,0,0,0,0,0,0.0145,0.0144,0,0.0095,0.0094,0.0093,0.0034,0.0034,0.0033,0.0032,-0.0097,-0.0099,-0.0102,0,0,0,0,0,0,0,0,0,0,0,0,0,0.0103,0.0105,0.0145,0.0144,0.0144,0.0095,0.0094,0.0093,0.0034,0.0034,0.0033,0.0032,-0.0096,-0.0099,-0.0102,0,0,0,0,0,0,0,0,0,0,0,0,0,0.0093,0.0105,0.0145,0.011,0.0106,0.0095,0.0094,0.0093,0.0035,0.0033,0.0032,0.0031,-0.0095,-0.0098,-0.0102,-0.0104,0,0,-0.0115,-0.0117,0,0,0,0,0,0,0,0,0.0094,0.0094,0.0115,0.0112,0.0108,0.0071,0.0032,0.0024,0.0035,0.006,0.0032,0.0031,-0.0046,-0.0054,-0.0062,-0.011,-0.0116,-0.0115,-0.0118,-0.0119,-0.0121,0,0,0,0,0,0,0,0.0095,0.0096,0.0123,0.0115,0.011,0.0067,0.0065,0.003,0.0012,0.0058,0.0054,0.0051,-0.0049,-0.0058,-0.0066,-0.0118,-0.0115,-0.0119,-0.0121,-0.0123,-0.0213,-0.0213,0,0,0,0,0,0,0.011,0.0097,0.0125,0.0122,0.0099,0.0069,0.0067,0.0083,0.0014,0.0003,0.0052,0.0049,-0.005,-0.0061,-0.007,-0.0106,-0.0119,-0.0123,-0.0126,-0.0213,-0.0213,-0.0213,0,0,0,0,0,0,0.011,0.0114,0.0127,0.0108,0.0107,0.0072,0.009,0.0082,0.0072,0.001,-0.0002,0.0049,-0.0052,-0.0065,-0.0112,-0.011,-0.0125,-0.0129,-0.0213,-0.0213,-0.0213,-0.0159,0,0,0,0,0,0,0.0109,0.0114,0.0141,0.011,0.0109,0.0125,0.0091,0.0082,0.0073,0.0067,0.0004,-0.0009,-0.0053,-0.0106,-0.0116,-0.0116,-0.0132,-0.0214,-0.0213,-0.0213,-0.016,-0.0157,-0.0153,0,0,0,0,0,0.0108,0.0143,0.0144,0.0147,0.0144,0.0126,0.0121,0.0089,0.0074,0.0075,0.0021,-0.0007,-0.0113,-0.0109,-0.0121,-0.0123,-0.0214,-0.0213,-0.0213,-0.0162,-0.0157,-0.0154,0,0,0,0,0,0,0.0126,0.014,0.0139,0.0174,0.0156,0.0116,0.0128,0.0098,0.006,0.0054,-0.001,-0.0027,-0.0066,-0.01,-0.0094,-0.0148,-0.0166,-0.0169,-0.0123,-0.0119,-0.0116,-0.0128,-0.0135,0,0,0,0,0,0.015,0.0179,0.0171,0.0191,0.0202,0.0168,0.0161,0.0132,0.0091,0.0075,0.0017,-0.0034,-0.0073,-0.01,-0.0142,-0.0172,-0.0217,-0.018,-0.0176,-0.0173,-0.0191,-0.0244,-0.0247,-0.0213,-0.0213,-0.0213,0,0,0.015,0.0168,0.0178,0.0197,0.0193,0.0186,0.0161,0.0153,0.0122,0.0066,0.0012,-0.0024,-0.0077,-0.0114,-0.0134,-0.0145,-0.0205,-0.0173,-0.017,-0.019,-0.0245,-0.0248,-0.0251,-0.0213,-0.0213,-0.0213,0,0,0.017,0.0203,0.0239,0.0231,0.0233,0.0208,0.0209,0.017,0.0143,0.0092,0.0046,0.0006,-0.0062,-0.0104,-0.0129,-0.0131,-0.0182,-0.0135,-0.0133,-0.0183,-0.0187,-0.019,-0.0245,-0.0254,-0.0136,-0.0136,-0.0136,0,0.0175,0.0217,0.0237,0.0259,0.0246,0.022,0.0219,0.019,0.012,0.0092,0.0078,-0.0027,-0.006,-0.0113,-0.0112,-0.0124,-0.0164,-0.0141,-0.0179,-0.0183,-0.0188,-0.0244,-0.0255,-0.0133,-0.0133,-0.0134,-0.0134,0,0.0212,0.0237,0.0257,0.0276,0.0264,0.0258,0.0223,0.0194,0.0157,0.0107,0.0047,-0.0005,-0.0073,-0.0075,-0.0095,-0.014,-0.0161,-0.0163,-0.0188,-0.0188,-0.0247,-0.0259,-0.0129,-0.013,-0.0131,-0.0132,0,0,0.023,0.0278,0.0281,0.0292,0.0269,0.0262,0.0224,0.0182,0.0158,0.0086,0.0033,-0.0021,-0.0055,-0.0086,-0.0113,-0.0152,-0.0202,-0.0168,-0.0172,-0.0221,-0.0323,-0.0277,-0.0286,-0.0209,-0.0211,-0.0212,-0.0348,0,0.0249,0.0306,0.0302,0.03,0.0321,0.0274,0.0245,0.0192,0.0141,0.0081,0.0018,-0.0036,-0.0056,-0.0077,-0.0124,-0.0187,-0.0234,-0.0167,-0.0319,-0.0324,-0.028,-0.0298,-0.0218,-0.0357,-0.036,-0.0362,-0.0364,0,0.0281,0.0316,0.0352,0.0338,0.0344,0.0322,0.0276,0.0244,0.0158,0.012,0.0039,-0.0027,-0.0114,-0.0112,-0.0253,-0.021,-0.0268,-0.0313,-0.0319,-0.0309,-0.03,-0.036,-0.0387,-0.0385,-0.0383,-0.0382,-0.038,0,0.031,0.0332,0.037,0.0364,0.0357,0.0345,0.0321,0.0256,0.0255,0.0138,0.0124,-0.0026,-0.0062,-0.0188,-0.0294,-0.028,-0.044,-0.0434,-0.0455,-0.0453,-0.0479,-0.0474,-0.0532,-0.0531,-0.0531,-0.0531,-0.053,0,0.033,0.0351,0.0394,0.0413,0.0446,0.0398,0.0412,0.0363,0.031,0.0314,0.0161,0.0131,-0.0075,-0.0193,-0.0312,-0.0426,-0.0464,-0.0472,-0.0488,-0.0451,-0.0442,-0.0488,-0.0481,-0.0536,-0.0535,-0.0534,-0.0533,0,0.0362,0.0391,0.0439,0.0458,0.0477,0.0498,0.0516,0.0524,0.0459,0.0454,0.0421,0.0249,0.0085,-0.0119,-0.0323,-0.0405,-0.055,-0.0574,-0.0538,-0.0546,-0.0532,-0.0521,-0.0635,-0.0634,-0.0634,-0.0633,-0.0633,0,0.0391,0.0433,0.0511,0.0565,0.0583,0.0624,0.0668,0.0618,0.0619,0.0542,0.0537,0.037,0.0241,-0.0039,-0.0254,-0.0527,-0.0531,-0.0622,-0.0572,-0.0541,-0.0545,-0.0534,-0.0524,-0.0633,-0.0632,-0.0632,-0.0632,0,0.0443,0.0483,0.0535,0.066,0.0725,0.0794,0.0822,0.0838,0.0779,0.0746,0.0632,0.0449,0.0273,-0.0003,-0.0215,-0.0397,-0.0588,-0.0619,-0.062,-0.0573,-0.054,-0.0542,-0.0532,-0.0631,-0.0631,-0.0631,-0.0631,0,0.0491,0.0541,0.0631,0.0725,0.0826,0.0892,0.0913,0.0896,0.0889,0.0777,0.0749,0.0517,0.0363,0.0069,-0.0128,-0.0318,-0.0346,-0.0393,-0.0407,-0.0411,-0.0297,-0.0218,-0.0237,0,0,0,0,0,0.0527,0.0583,0.0687,0.0778,0.0879,0.0928,0.0983,0.0981,0.094,0.0885,0.0806,0.0628,0.032,0.0163,-0.0015,-0.0106,-0.0375,-0.0318,-0.0436,-0.0623,-0.0625,-0.0524,0,0,0,0,0,0,0.0555,0.0648,0.0685,0.0798,0.0867,0.0966,0.1001,0.0988,0.0926,0.0864,0.0691,0.0601,0.0287,0.042,-0.0017,-0.0077,-0.0169,-0.0472,-0.0475,-0.0623,-0.0624,-0.0625,-0.0522,0,0,0,0,0]}]]